Location: Leoville (historical)
(38.5945°N, 98.9295°W)
Time: 06:21:14
(UTC+00:00)

Daily predictions for brighter satellites

Satellite Brightness Start Highest point End
(mag) Time Altitude Azimuth Time Altitude Azimuth Time Altitude Azimuth
STARLINK 1046 3.5 12:02:54 44° SW 12:04:08 89° SE 12:08:18 10° NE
Okean O Rocket 2.4 12:00:28 10° NNE 12:04:50 53° E 12:09:07 10° S
Cosmos 1371 Rocket 4.0 12:01:15 13° NNW 12:05:58 90° ENE 12:11:19 10° SSE
METEOR-M 4.0 12:01:30 10° N 12:06:51 79° WNW 12:12:11 10° SSW
SL-8 Rocket 3.9 12:02:14 10° NNW 12:08:21 66° W 12:14:24 10° S
STARLINK 1039 3.5 12:07:40 40° SW 12:09:06 83° NW 12:13:15 10° NE
PAYLOAD B 4.2 12:07:45 10° NNE 12:13:24 89° ESE 12:19:00 10° SSW
ATLAS 2AS CENTAUR R/B 3.7 12:10:44 27° WNW 12:13:24 33° NW 12:20:30 10° NNE
STARLINK 1045 3.5 12:12:27 35° WSW 12:14:05 76° NW 12:18:14 10° NE
NOAA 6 4.2 12:09:24 10° NNE 12:14:37 74° ESE 12:19:47 10° S
COSMO-SKYMED 1 2.6 12:10:39 10° S 12:14:54 54° W 12:18:04 17° NNW
Cosmos 2181 Rocket 4.2 12:09:24 10° SSW 12:15:22 48° WNW 12:21:28 10° N
Abrixas rocket 3.8 12:16:50 21° SSW 12:16:50 21° SSW 12:18:37 10° SSE
STARLINK 1050 3.5 12:17:28 32° WSW 12:19:12 66° NW 12:23:20 10° NE
BREEZE M DEB (TANK) 3.8 12:19:53 23° NNW 12:20:17 24° N 12:24:06 10° NE
Cosmos 1340 Rocket 4.4 12:16:48 10° SSE 12:20:24 37° E 12:24:02 10° NNE
FALCON 9 DEB 3.7 12:20:25 28° NNW 12:22:00 54° NE 12:25:26 10° ESE
Lacrosse 5 rocket 4.0 12:22:04 10° N 12:23:58 12° NNE 12:25:50 10° NE
STARLINK 1055 3.6 12:22:12 29° WSW 12:24:08 60° NW 12:28:15 10° NE
Cosmos 2322 Rocket 2.6 12:21:02 13° SW 12:25:40 39° WNW 12:31:00 10° N
Cosmos 1900 4.4 12:23:56 12° NNW 12:28:30 80° ENE 12:33:24 10° SSE
STARLINK 1022 3.7 12:26:58 25° WSW 12:29:07 55° NW 12:33:11 10° NE
Cosmos 2263 Rocket 2.8 12:26:39 21° NW 12:29:35 34° WSW 12:34:38 10° SSW
Meteor 1-11 4.3 12:26:44 10° NNW 12:32:13 56° W 12:37:45 10° S
Cosmos 1624 Rocket 4.0 12:27:58 10° NNW 12:33:04 58° WSW 12:38:08 10° S
STARLINK 1042 3.8 12:31:43 22° WSW 12:34:05 50° NW 12:38:07 10° NE
CZ-4B DEB 4.4 12:31:40 10° N 12:36:59 49° WNW 12:42:14 10° SW
STARLINK 1056 3.9 12:36:32 20° WSW 12:39:06 46° NW 12:43:06 10° NE
USA 116 4.1 12:34:54 10° S 12:39:21 52° W 12:43:20 10° NNW
Lacrosse 5 3.0 12:37:32 20° WNW 12:39:41 26° NNW 12:43:56 10° NNE
Cosmos 1174 4.0 12:35:38 10° SSW 12:39:53 68° ESE 12:43:22 10° NE
CZ-3 R/B 3.4 12:26:30 15° W 12:40:23 38° SSW 12:46:19 10° SE
Cosmos 1300 2.6 12:36:52 10° SSW 12:40:39 67° W 12:44:27 10° N
Cosmos 1844 Rocket 3.3 12:35:12 10° NNW 12:40:47 59° ENE 12:46:21 10° SE
Cosmos 2058 4.1 12:37:59 10° N 12:42:03 45° E 12:46:05 10° SSE
Cosmos 1821 Rocket 4.3 12:36:15 10° N 12:42:24 71° E 12:48:27 10° SSE
BREEZE M DEB (TANK) 4.3 12:31:21 14° WNW 12:42:34 47° N 12:46:35 10° E
Nadezhda 3 Rocket 4.0 12:36:46 10° S 12:42:54 89° E 12:49:08 10° N
STARLINK 1054 4.0 12:41:17 18° W 12:44:04 42° NW 12:48:01 10° NE
Cosmos 2333 Rocket 3.1 12:42:45 10° S 12:48:23 56° ESE 12:54:00 10° NNE
STARLINK-29 3.2 12:46:15 16° NW 12:49:00 82° NE 12:52:31 10° SE
STARLINK 1062 4.2 12:46:02 15° W 12:49:02 39° NW 12:52:57 10° NE
Cosmos 2056 Rocket 3.9 12:44:01 10° NNW 12:49:07 43° WSW 12:54:12 10° S
SMAP 3.5 12:44:53 10° NNE 12:49:32 68° E 12:54:09 10° S
H-2A R/B 2.8 12:46:09 10° NNE 12:50:04 84° ESE 12:53:54 10° S
STARLINK-52 3.2 12:48:40 14° NW 12:51:34 76° NE 12:55:04 10° SE
STARLINK-60 3.7 12:49:40 18° WNW 12:51:45 38° SW 12:54:53 10° SSE
STARLINK 1053 4.3 12:50:52 14° W 12:54:06 36° NNW 12:57:58 10° NE
Cosmos-2242 4.5 12:50:13 10° SSE 12:54:21 42° E 12:58:30 10° NNE
Helios 1A Rocket 3.1 12:53:54 10° N 12:57:54 48° WNW 13:01:53 10° SSW
STARLINK 1061 4.4 12:55:40 12° W 12:59:06 34° NNW 13:02:55 10° NE
STARLINK 1067 4.5 13:00:25 10° W 13:04:06 31° NNW 13:07:50 10° NNE
BREEZE-M DEB (TANK) 4.2 13:01:10 10° WSW 13:04:39 77° NNW 13:15:08 10° NE
Cosmos 468 4.5 13:02:57 10° SSW 13:08:11 75° WNW 13:13:26 10° NNE
ADEOS Rocket 2.8 13:02:54 10° S 13:08:20 67° WSW 13:14:03 10° NNW
Cosmos 1812 Rocket 3.8 13:04:40 10° SSW 13:08:51 45° W 13:13:06 10° N
SL-16 R/B 3.7 13:06:10 10° W 13:09:34 16° NW 13:12:59 10° NNW
CZ-4 R/B 4.1 13:06:27 10° NE 13:10:00 26° E 13:13:30 10° SSE
Cosmos 2360 Rocket 2.8 13:05:11 10° WSW 13:10:17 34° WNW 13:15:25 10° N
Feng Yun 1-1 Rocket 4.5 13:06:54 10° NNE 13:12:49 87° ESE 13:18:35 10° SSW
ATLAS 3B R/B 3.5 13:07:05 10° NW 13:12:53 31° WSW 13:18:51 10° S
Cosmos 2219 Rocket 2.3 13:07:28 10° SSW 13:13:07 87° ESE 13:18:49 10° NNE
Cosmos 1934 Rocket 4.2 13:08:03 10° N 13:14:13 78° E 13:20:27 10° S
Cosmos 2333 4.3 13:08:32 10° SSW 13:14:15 63° WNW 13:20:00 10° NNE
Cosmos 2322 3.8 13:09:58 10° SW 13:15:29 53° WNW 13:21:03 10° NNE
Cosmos 1892 2.8 13:16:29 10° N 13:20:19 85° E 13:24:05 10° S
CZ-2C R/B 4.2 13:16:49 10° SSE 13:21:21 66° ENE 13:25:49 10° N
Cosmos 1867 4.5 13:16:32 10° NNW 13:21:50 49° NE 13:27:04 10° SE
USA 215 3.3 13:15:49 10° SE 13:22:21 83° SW 13:28:55 10° NW
